Little Sugar Creek (Missouri), Pineville (07188838)

StateMissouriLatestPoor (151 cfs)
RiverLittle Sugar CreekRatingObservedEstimated
Updated2026-05-10 15:15 (57 minutes ago)Flood - The river is flooding. Obstacles can be treacherous or deadly. The river should be avoided at this stage for casual trips and definitely for the inexperienced. Trips should be attempted only with protective gear and equipment.Flood(none)1245
Discharge151 cfs (median: 289 cfs)High - The river is high and potentially dangerous, especially for the young and / or inexperienced. Normal stream obstacles are sometimes difficult to navigate. Extended distances can be attempted, but canoe travel may not be advisable.High(none)542
Height2.38 feetGood - Conditions are ideal for a canoe or kayak. Boats typically will drag on fewer than one-quarter of riffles, if at all, and portages are unnecessary or rare. Normal float lengths can be attempted without a problem.Good(none)302
TrendSteady (falling over 24 hours)Low - River is low but can still be floated. Some riffles are okay but most come with significant dragging and might need a portage. Float lengths should be reduced to accommodate low flow, dragging, and portages.Low(none)153
USGSExternal icon USGS Site (External icon Duck Duck Go Maps)Poor - River is too low to float comfortably. Most or all riffles will drag or must be portaged and some obstacles (such as slick shelf rock) cause undue problems. Avoid the river at this stage for casual paddling trips.Poor(none)58

Trending Data

Plot Image

Trips for Little Sugar Creek (Missouri), Pineville (07188838)

DateStartEndDistanceConditionDischargeHeightFishingDetails

A total of 0 rows are displayed.

Condition Descriptions

Fishing Conditions

Fish Species

Notes

Classic Trip List

The classic River Trips application is still available for use. It is updated with the new system using a data retrofit. It is no longer maintained. The original River Trips application is no longer updated (as of 1 Dec 2016) but can be checked for errors or for the condition of the data before it was converted to the new system.

Gauge Data Table

ObservationHeightDischargeMaximum
Discharge
Minimum
Discharge
Mean
Discharge
P05P10P20P25P50
(Median)
P75P80P90P95
2026-05-10 15:15 2.38 151 6740 (2013) 68 (2012) 700 70 93 137 154 289 651 757 1150 6180
2026-05-10 14:15 2.38 151 6740 (2013) 68 (2012) 700 70 93 137 154 289 651 757 1150 6180
2026-05-10 13:15 2.39 153 6740 (2013) 68 (2012) 700 70 93 137 154 289 651 757 1150 6180
2026-05-10 12:15 2.40 155 6740 (2013) 68 (2012) 700 70 93 137 154 289 651 757 1150 6180
2026-05-10 11:15 2.40 155 6740 (2013) 68 (2012) 700 70 93 137 154 289 651 757 1150 6180
2026-05-10 10:15 2.41 156 6740 (2013) 68 (2012) 700 70 93 137 154 289 651 757 1150 6180
2026-05-10 09:15 2.40 155 6740 (2013) 68 (2012) 700 70 93 137 154 289 651 757 1150 6180
2026-05-10 08:15 2.40 155 6740 (2013) 68 (2012) 700 70 93 137 154 289 651 757 1150 6180
2026-05-10 07:15 2.39 153 6740 (2013) 68 (2012) 700 70 93 137 154 289 651 757 1150 6180
2026-05-10 06:15 2.41 156 6740 (2013) 68 (2012) 700 70 93 137 154 289 651 757 1150 6180
2026-05-10 05:15 2.40 155 6740 (2013) 68 (2012) 700 70 93 137 154 289 651 757 1150 6180
2026-05-10 04:15 2.41 156 6740 (2013) 68 (2012) 700 70 93 137 154 289 651 757 1150 6180
2026-05-10 03:15 2.40 155 6740 (2013) 68 (2012) 700 70 93 137 154 289 651 757 1150 6180
2026-05-10 02:15 2.41 156 6740 (2013) 68 (2012) 700 70 93 137 154 289 651 757 1150 6180
2026-05-10 01:15 2.41 156 6740 (2013) 68 (2012) 700 70 93 137 154 289 651 757 1150 6180
2026-05-10 00:15 2.42 158 6740 (2013) 68 (2012) 700 70 93 137 154 289 651 757 1150 6180
2026-05-09 23:15 2.43 160 6740 (2013) 68 (2012) 700 70 93 137 154 289 651 757 1150 6180
2026-05-09 22:15 2.43 160 1980 (2009) 75 (2012) 442 76 97 128 156 318 464 615 1140 1900
2026-05-09 21:15 2.44 162 1980 (2009) 75 (2012) 442 76 97 128 156 318 464 615 1140 1900
2026-05-09 20:15 2.44 162 1980 (2009) 75 (2012) 442 76 97 128 156 318 464 615 1140 1900
2026-05-09 19:15 2.45 164 1980 (2009) 75 (2012) 442 76 97 128 156 318 464 615 1140 1900
2026-05-09 18:15 2.45 164 1980 (2009) 75 (2012) 442 76 97 128 156 318 464 615 1140 1900
2026-05-09 17:15 2.46 166 1980 (2009) 75 (2012) 442 76 97 128 156 318 464 615 1140 1900
2026-05-09 16:15 2.47 168 1980 (2009) 75 (2012) 442 76 97 128 156 318 464 615 1140 1900
2026-05-09 15:15 2.47 168 1980 (2009) 75 (2012) 442 76 97 128 156 318 464 615 1140 1900
2026-05-09 14:15 2.48 170 1980 (2009) 75 (2012) 442 76 97 128 156 318 464 615 1140 1900
2026-05-09 13:15 2.48 170 1980 (2009) 75 (2012) 442 76 97 128 156 318 464 615 1140 1900
2026-05-09 12:15 2.48 170 1980 (2009) 75 (2012) 442 76 97 128 156 318 464 615 1140 1900
2026-05-09 11:15 2.50 174 1980 (2009) 75 (2012) 442 76 97 128 156 318 464 615 1140 1900
2026-05-09 10:15 2.48 170 1980 (2009) 75 (2012) 442 76 97 128 156 318 464 615 1140 1900
2026-05-09 09:15 2.48 170 1980 (2009) 75 (2012) 442 76 97 128 156 318 464 615 1140 1900
2026-05-09 08:15 2.48 170 1980 (2009) 75 (2012) 442 76 97 128 156 318 464 615 1140 1900
2026-05-09 07:15 2.48 170 1980 (2009) 75 (2012) 442 76 97 128 156 318 464 615 1140 1900
2026-05-09 06:15 2.49 172 1980 (2009) 75 (2012) 442 76 97 128 156 318 464 615 1140 1900
2026-05-09 05:15 2.49 172 1980 (2009) 75 (2012) 442 76 97 128 156 318 464 615 1140 1900
2026-05-09 04:15 2.50 174 1980 (2009) 75 (2012) 442 76 97 128 156 318 464 615 1140 1900
2026-05-09 03:15 2.50 174 1980 (2009) 75 (2012) 442 76 97 128 156 318 464 615 1140 1900
2026-05-09 02:15 2.50 174 1980 (2009) 75 (2012) 442 76 97 128 156 318 464 615 1140 1900
2026-05-09 01:15 2.50 174 1980 (2009) 75 (2012) 442 76 97 128 156 318 464 615 1140 1900
2026-05-09 00:15 2.52 178 1980 (2009) 75 (2012) 442 76 97 128 156 318 464 615 1140 1900
2026-05-08 23:15 2.52 178 1980 (2009) 75 (2012) 442 76 97 128 156 318 464 615 1140 1900
2026-05-08 22:15 2.53 181 1600 (2009) 71 (2014) 463 72 86 124 135 302 568 836 1440 1590
2026-05-08 21:15 2.53 181 1600 (2009) 71 (2014) 463 72 86 124 135 302 568 836 1440 1590
2026-05-08 20:15 2.53 181 1600 (2009) 71 (2014) 463 72 86 124 135 302 568 836 1440 1590
2026-05-08 19:15 2.54 183 1600 (2009) 71 (2014) 463 72 86 124 135 302 568 836 1440 1590
2026-05-08 18:15 2.55 185 1600 (2009) 71 (2014) 463 72 86 124 135 302 568 836 1440 1590
2026-05-08 17:15 2.56 187 1600 (2009) 71 (2014) 463 72 86 124 135 302 568 836 1440 1590
2026-05-08 16:15 2.57 189 1600 (2009) 71 (2014) 463 72 86 124 135 302 568 836 1440 1590
2026-05-08 15:15 2.58 191 1600 (2009) 71 (2014) 463 72 86 124 135 302 568 836 1440 1590
2026-05-08 14:15 2.58 191 1600 (2009) 71 (2014) 463 72 86 124 135 302 568 836 1440 1590
2026-05-08 13:15 2.58 191 1600 (2009) 71 (2014) 463 72 86 124 135 302 568 836 1440 1590
2026-05-08 12:15 2.58 191 1600 (2009) 71 (2014) 463 72 86 124 135 302 568 836 1440 1590
2026-05-08 11:15 2.58 191 1600 (2009) 71 (2014) 463 72 86 124 135 302 568 836 1440 1590
2026-05-08 10:15 2.58 191 1600 (2009) 71 (2014) 463 72 86 124 135 302 568 836 1440 1590
2026-05-08 09:15 2.58 191 1600 (2009) 71 (2014) 463 72 86 124 135 302 568 836 1440 1590
2026-05-08 08:15 2.59 194 1600 (2009) 71 (2014) 463 72 86 124 135 302 568 836 1440 1590
2026-05-08 07:15 2.61 198 1600 (2009) 71 (2014) 463 72 86 124 135 302 568 836 1440 1590
2026-05-08 06:15 2.60 196 1600 (2009) 71 (2014) 463 72 86 124 135 302 568 836 1440 1590
2026-05-08 05:15 2.61 198 1600 (2009) 71 (2014) 463 72 86 124 135 302 568 836 1440 1590
2026-05-08 04:15 2.61 198 1600 (2009) 71 (2014) 463 72 86 124 135 302 568 836 1440 1590
2026-05-08 03:15 2.61 198 1600 (2009) 71 (2014) 463 72 86 124 135 302 568 836 1440 1590
2026-05-08 02:15 2.62 200 1600 (2009) 71 (2014) 463 72 86 124 135 302 568 836 1440 1590
2026-05-08 01:15 2.62 200 1600 (2009) 71 (2014) 463 72 86 124 135 302 568 836 1440 1590
2026-05-08 00:15 2.63 203 1600 (2009) 71 (2014) 463 72 86 124 135 302 568 836 1440 1590
2026-05-07 23:15 2.64 205 1600 (2009) 71 (2014) 463 72 86 124 135 302 568 836 1440 1590
2026-05-07 22:15 2.64 205 3280 (2024) 66 (2014) 525 68 91 131 143 339 454 619 1390 3100
2026-05-07 21:15 2.65 207 3280 (2024) 66 (2014) 525 68 91 131 143 339 454 619 1390 3100
2026-05-07 20:15 2.66 210 3280 (2024) 66 (2014) 525 68 91 131 143 339 454 619 1390 3100
2026-05-07 19:15 2.68 214 3280 (2024) 66 (2014) 525 68 91 131 143 339 454 619 1390 3100
2026-05-07 18:15 2.69 217 3280 (2024) 66 (2014) 525 68 91 131 143 339 454 619 1390 3100
2026-05-07 17:15 2.69 217 3280 (2024) 66 (2014) 525 68 91 131 143 339 454 619 1390 3100
2026-05-07 16:15 2.70 219 3280 (2024) 66 (2014) 525 68 91 131 143 339 454 619 1390 3100
2026-05-07 15:15 2.71 222 3280 (2024) 66 (2014) 525 68 91 131 143 339 454 619 1390 3100
2026-05-07 14:15 2.71 222 3280 (2024) 66 (2014) 525 68 91 131 143 339 454 619 1390 3100
2026-05-07 13:15 2.71 222 3280 (2024) 66 (2014) 525 68 91 131 143 339 454 619 1390 3100
2026-05-07 12:15 2.73 227 3280 (2024) 66 (2014) 525 68 91 131 143 339 454 619 1390 3100
2026-05-07 11:15 2.72 224 3280 (2024) 66 (2014) 525 68 91 131 143 339 454 619 1390 3100
2026-05-07 10:15 2.74 229 3280 (2024) 66 (2014) 525 68 91 131 143 339 454 619 1390 3100
2026-05-07 09:15 2.73 227 3280 (2024) 66 (2014) 525 68 91 131 143 339 454 619 1390 3100
2026-05-07 08:15 2.73 227 3280 (2024) 66 (2014) 525 68 91 131 143 339 454 619 1390 3100
2026-05-07 07:15 2.73 227 3280 (2024) 66 (2014) 525 68 91 131 143 339 454 619 1390 3100
2026-05-07 06:15 2.75 232 3280 (2024) 66 (2014) 525 68 91 131 143 339 454 619 1390 3100
2026-05-07 05:15 2.75 232 3280 (2024) 66 (2014) 525 68 91 131 143 339 454 619 1390 3100
2026-05-07 04:15 2.76 234 3280 (2024) 66 (2014) 525 68 91 131 143 339 454 619 1390 3100
2026-05-07 03:15 2.77 237 3280 (2024) 66 (2014) 525 68 91 131 143 339 454 619 1390 3100
2026-05-07 02:15 2.78 239 3280 (2024) 66 (2014) 525 68 91 131 143 339 454 619 1390 3100
2026-05-07 01:15 2.78 239 3280 (2024) 66 (2014) 525 68 91 131 143 339 454 619 1390 3100
2026-05-07 00:15 2.79 242 3280 (2024) 66 (2014) 525 68 91 131 143 339 454 619 1390 3100
2026-05-06 23:15 2.81 247 3280 (2024) 66 (2014) 525 68 91 131 143 339 454 619 1390 3100

A total of 89 rows are displayed for years 2005 through 2025.